Regional Weather Roundup
Issued by NWS Upton, NY

Current Version | Previous Version | Text Only | Print | Product List | Glossary Off
Versions: 1 2 3 4 5 6 7 8 9 10 11 12 13 14 15 16 17 18 19 20 21 22 23 24 25 26 27 28 29 30 31 32 33 34 35 36 37 38 39 40 41 42 43 44 45 46 47 48 49
000 ASUS41 KOKX 301108 RWROKX REGIONAL WEATHER ROUNDUP NATIONAL WEATHER SERVICE NEW YORK NY 700 AM EDT MON MAR 30 2015 NOTE: "FAIR" INDICATES FEW OR NO CLOUDS BELOW 12,000 FEET WITH NO SIGNIFICANT WEATHER AND/OR OBSTRUCTIONS TO VISIBILITY. NYZ071-072-176-178-NJZ106-104-301200- NEW YORK CITY METRO AREA CITY SKY/WX TMP DP RH WIND PRES REMARKS CENTRAL PARK LGT SNOW 36 26 67 VRB3 29.96F LAGUARDIA APRT LGT SNOW 35 26 69 SW13G18 29.95F WCI 26 KENNEDY INTL FLURRIES 37 25 61 SW10 29.97F WCI 30 NEWARK/LIBERTY CLOUDY 36 26 67 S5 29.93F WCI 32 BRNX BOT. GARD N/A N/A N/A N/A S7 29.95F TETERBORO CLOUDY 36 25 64 S9 29.92F WCI 29 $$ NYZ177-179-078>081-301200- LONG ISLAND NEW YORK CITY SKY/WX TMP DP RH WIND PRES REMARKS FARMINGDALE LGT SNOW 37 29 72 SW14G23 29.97F WCI 28 ISLIP CLOUDY 38 27 64 SW14 29.96F WCI 30 SHIRLEY CLOUDY 38 28 67 SW12 29.99F WCI 30 WESTHAMPTON CLOUDY 38 28 67 SW8 30.00F WCI 32 MONTAUK POINT N/A 38 28 67 S10 29.99F WCI 31 $$ NYZ052-065-067-301200- HUDSON VALLEY CITY SKY/WX TMP DP RH WIND PRES REMARKS WHITE PLAINS LGT SNOW 32 27 81 CALM 29.92F VSB 3/4 NEWBURGH LGT SNOW 34 25 69 SW7 29.93S FOG WCI 28 MONTGOMERY FLURRIES 31 29 92 SW3 29.88F POUGHKEEPSIE LGT SNOW 33 29 85 SE5 29.89F FOG WCI 29 ALBANY FLURRIES 34 23 64 S14G21 29.81F WCI 25 $$ NJZ001-105-106-008-010-013-015-019>022-104-301200- NEW JERSEY CITY SKY/WX TMP DP RH WIND PRES REMARKS NEWARK/LIBERTY CLOUDY 36 26 67 S5 29.93F WCI 32 TETERBORO CLOUDY 36 25 64 S9 29.92F WCI 29 CALDWELL CLOUDY 35 22 58 VRB3 29.93F MORRISTOWN CLOUDY 37 21 52 S5 29.93F WCI 34 SOMERVILLE CLOUDY 35 25 66 S7 29.91F WCI 29 SUSSEX CLOUDY 32 27 81 SW6 29.89S WCI 26 ANDOVER N/A 31 28 89 CALM 29.89F TRENTON CLOUDY 34 29 82 S10 29.94F WCI 26 MILLVILLE LGT RAIN 39 28 64 SW6 29.98F WCI 35 ATLANTIC CITY CLOUDY 38 33 82 S12 29.96F WCI 30 WRIGHTSTOWN FRZ RAIN 32 32 100 SW6 29.94F WCI 26 TOMS RIVER CLOUDY 34 28 80 S3 29.96F BELMAR CLOUDY 36 23 60 S5 29.94F WCI 32 $$ PAZ047>061-062-071-301200- EASTERN PENNSYLVANIA CITY SKY/WX TMP DP RH WIND PRES REMARKS PHILADELPHIA CLOUDY 36 31 82 S15 29.96F WCI 27 ALLENTOWN CLOUDY 36 26 67 S6 29.90F WCI 31 SCRANTON CLOUDY 37 25 61 S17G33 29.79F WCI 27 $$ CTZ002-004>006-009-010-012-RIZ004-006-007-MAZ004-011-015-301200- SOUTHERN NEW ENGLAND IN CT CITY SKY/WX TMP DP RH WIND PRES REMARKS BRADLEY INTL CLOUDY 36 20 52 SW12G23 29.91F WCI 28 HARTFORD CLOUDY 36 20 52 S9 29.94F WCI 29 DANBURY LGT SNOW 32 22 66 S13 29.93F WCI 22 WTRBRY/OXFORD LGT SNOW 34 16 47 SW7 29.92F FOG WCI 28 BRIDGEPORT FLURRIES 37 29 72 SW22G30 29.97F WCI 26 MERIDEN CLOUDY 35 23 61 S8 29.94F WCI 29 NEW HAVEN CLOUDY 36 29 75 S9 29.96F WCI 29 CHESTER FAIR 34 27 75 S7 29.96S WCI 28 GROTON CLOUDY 36 30 79 S8 29.97F WCI 30 WILLIMANTIC CLOUDY 34 22 61 S7 29.95F WCI 28 IN RI CITY SKY/WX TMP DP RH WIND PRES REMARKS PROVIDENCE MOCLDY 33 26 75 S8 29.97F WCI 26 BLOCK ISLAND MOCLDY 37 27 65 SW14 29.98F WCI 29 WESTERLY MOCLDY 37 28 70 S8 29.99F WCI 31 IN MA CITY SKY/WX TMP DP RH WIND PRES REMARKS BOSTON CLOUDY 33 24 69 SW13 29.94F WCI 24 WORCESTER CLOUDY 30 19 63 SW15 29.87F WCI 19 WESTFIELD CLOUDY 34 20 56 SW14G23 29.90F WCI 25 PROVINCETOWN MOCLDY 34 27 75 S12G18 29.98F WCI 25 NANTUCKET PTCLDY 36 29 75 SW14 30.04F WCI 27 $$ ANZ330-335-338-340-345-350-353-355-301200- COASTAL MARINE OBSERVATIONS STATION/POSITION TIME SKY/WX TEMP WIND PRES VSBY WAVE AIR SEA DIR/SP/G HT/PER (UTC) (F) (DEG/KT/KT) (MB) (MI) (FT/S) NY HARB ENTRANCE 1050 38 38 210/ 14/ 16 1013.9 4/ 5 4S FIRE IS 1003 37 N/A 4/ 5 20S FIRE ISLAND 0950 38 1016.2 4/ 5 23SW MTP 1050 N/A 5/ 5 HUDSON CANYON NOT AVBL EXECUTION ROCKS NOT AVBL WESTERN LI SOUND NOT AVBL CENTRAL LI SOUND NOT AVBL EASTERN LI SOUND NOT AVBL ROBBINS REEF 1000 37 220/ 10/ 13 1013.9 $$ >>>>>>>>>>>>>>>>>>>>>>>>>>>> KEY <<<<<<<<<<<<<<<<<<<<<<<<<<< > < > SKY/WX - SKY CONDITION/PRESENT WEATHER < > TMP - TEMPERATURE IN FAHRENHEIT < > DP - DEWPOINT IN FAHRENHEIT < > RH - RELATIVE HUMIDITY IN PERCENT < > WIND - DIRECTION AND SPEED IN MPH < > PRES - MEAN SEA LEVEL PRESSURE IN INCHES OF HG < > WCI - WIND CHILL INDEX < > VSB - VISIBILITY IN MILES < > HX - HEAT INDEX < > TC - TEMPERATURE IN CELSIUS < > VRB - VARIABLE WIND DIRECTION < > < >>>>>>>>>>>>>>>>>>>>>>>>>>>> KEY <<<<<<<<<<<<<<<<<<<<<<<<<<<

USA.gov is the U.S. government's official web portal to all federal, state and local government web resources and services.